TimeMDT,TemperatureF,Dew PointF,Humidity,Sea Level PressureIn,VisibilityMPH,Wind Direction,Wind SpeedMPH,Gust SpeedMPH,PrecipitationIn,Events,Conditions,WindDirDegrees,DateUTC
12:53 AM,42.1,37.9,85,29.97,10.0,WNW,10.4,-,N/A,,Clear,300,2013-09-28 06:53:00
1:53 AM,39.0,36.0,89,29.99,10.0,WNW,8.1,-,N/A,,Clear,290,2013-09-28 07:53:00
2:53 AM,37.9,35.1,89,30.01,10.0,West,10.4,-,N/A,,Clear,280,2013-09-28 08:53:00
3:53 AM,37.0,34.0,89,30.02,10.0,WNW,9.2,-,N/A,,Clear,290,2013-09-28 09:53:00
4:53 AM,37.9,34.0,86,30.04,10.0,WNW,9.2,-,N/A,,Clear,290,2013-09-28 10:53:00
5:53 AM,39.9,33.1,77,30.05,10.0,WNW,11.5,-,N/A,,Clear,300,2013-09-28 11:53:00
6:53 AM,39.0,32.0,76,30.08,10.0,WNW,8.1,-,N/A,,Clear,300,2013-09-28 12:53:00
7:53 AM,43.0,34.0,71,30.08,10.0,WNW,11.5,-,N/A,,Clear,300,2013-09-28 13:53:00
8:53 AM,48.9,35.1,59,30.08,10.0,NW,16.1,20.7,N/A,,Clear,310,2013-09-28 14:53:00
9:53 AM,53.1,32.0,45,30.08,10.0,NW,21.9,33.4,N/A,,Clear,310,2013-09-28 15:53:00
10:53 AM,57.0,32.0,39,30.06,10.0,NW,25.3,33.4,N/A,,Clear,310,2013-09-28 16:53:00
11:53 AM,60.1,30.9,33,30.07,10.0,WNW,20.7,29.9,N/A,,Clear,290,2013-09-28 17:53:00
12:53 PM,62.1,30.9,31,30.06,10.0,WNW,23.0,29.9,N/A,,Clear,300,2013-09-28 18:53:00
1:53 PM,64.0,32.0,30,30.05,10.0,West,17.3,31.1,N/A,,Clear,280,2013-09-28 19:53:00
2:53 PM,64.9,34.0,32,30.04,10.0,West,17.3,21.9,N/A,,Clear,260,2013-09-28 20:53:00
3:53 PM,66.0,34.0,30,30.03,10.0,WSW,10.4,-,N/A,,Clear,240,2013-09-28 21:53:00
4:53 PM,64.9,34.0,32,30.03,10.0,SW,13.8,-,N/A,,Clear,220,2013-09-28 22:53:00
5:53 PM,63.0,37.0,38,30.03,10.0,WSW,13.8,-,N/A,,Clear,240,2013-09-28 23:53:00
6:53 PM,53.1,41.0,64,30.07,10.0,WSW,8.1,-,N/A,,Clear,240,2013-09-29 00:53:00
7:53 PM,50.0,39.0,66,30.08,10.0,West,6.9,-,N/A,,Clear,260,2013-09-29 01:53:00
8:53 PM,48.9,39.0,69,30.08,10.0,WNW,8.1,-,N/A,,Clear,290,2013-09-29 02:53:00
9:53 PM,44.1,37.9,79,30.09,10.0,West,4.6,-,N/A,,Clear,260,2013-09-29 03:53:00
10:53 PM,42.1,37.9,85,30.08,10.0,WSW,8.1,-,N/A,,Clear,250,2013-09-29 04:53:00
11:53 PM,43.0,37.0,80,30.06,10.0,WSW,9.2,-,N/A,,Clear,250,2013-09-29 05:53:00